Regional Weather Roundup
Issued by NWS Upton, NY

Home | Current Version | Previous Version | Text Only | Print | Product List | Glossary On
Versions: 1 2 3 4 5 6 7 8 9 10 11 12 13 14 15 16 17 18 19 20 21 22 23 24 25 26 27 28
000
ASUS41 KOKX 250909
RWROKX

REGIONAL WEATHER ROUNDUP
NATIONAL WEATHER SERVICE NEW YORK NY
500 AM EDT TUE JUL 25 2017

NOTE: "FAIR" INDICATES FEW OR NO CLOUDS BELOW 12,000 FEET WITH NO
SIGNIFICANT WEATHER AND/OR OBSTRUCTIONS TO VISIBILITY.

NYZ071-072-176-178-NJZ106-104-251000-
NEW YORK CITY METRO AREA

CITY           SKY/WX    TMP DP  RH WIND       PRES   REMARKS
Central Park   CLOUDY    63  59  87 VRB5      30.02R
Bronx Bot Gard   N/A     59  57  94 E3        30.02R
LaGuardia APRT CLOUDY    63  59  87 E8        29.99R
Kennedy INTL   CLOUDY    64  60  87 NE8       29.99R
Breezy Point     N/A     63 N/A N/A E6          N/A
Newark/Liberty CLOUDY    62  59  90 N9        29.98R
Teterboro      CLOUDY    62  59  90 N3        29.98R
$$

NYZ177-179-078>081-251000-
LONG ISLAND NEW YORK

CITY           SKY/WX    TMP DP  RH WIND       PRES   REMARKS
Jones Beach      N/A     63 N/A N/A NE12        N/A
Matinecock PT    N/A     61 N/A N/A NE14        N/A
Farmingdale    CLOUDY    62  57  83 E7        29.99S
MacArthur/ISP  CLOUDY    62  58  86 NE6       29.99R
Shirley        CLOUDY    63  59  87 CALM      30.00R
Mt Sinai Harb    N/A    N/A N/A N/A NE6         N/A
Westhampton    CLOUDY    62  56  80 CALM      30.01R
East Hampton   CLOUDY    60  56  87 E7        29.99R
Montauk          N/A     61  58  90 N5        30.02R
$$

NYZ052-065-067-251000-
HUDSON VALLEY

CITY           SKY/WX    TMP DP  RH WIND       PRES   REMARKS
White Plains   MOCLDY    59  56  89 NE5       30.00R FOG
Larchmont Harb   N/A     59 N/A N/A N9          N/A
Croton O-T Hud   N/A     59 N/A N/A E2          N/A
Newburgh       CLOUDY    59  59 100 E7        30.02R
Montgomery     LGT RAIN  59  58  96 NE3       30.00S
Poughkeepsie   CLOUDY    58  55  90 E3        30.01R
Albany         CLOUDY    58  53  84 S7        30.01R
$$

NJZ001-105-106-008-010-013-015-019>022-104-251000-
NEW JERSEY

CITY           SKY/WX    TMP DP  RH WIND       PRES   REMARKS
Newark/Liberty CLOUDY    62  59  90 N9        29.98R
Teterboro      CLOUDY    62  59  90 N3        29.98R
Caldwell       CLOUDY    60  58  92 NE7       30.00R
Somerville     CLOUDY    63  60  90 CALM      29.97R
Linden         CLOUDY    64  58  80 CALM      29.99R
Perth Amboy      N/A     63 N/A N/A NE7         N/A
Sussex         LGT RAIN  61  60  97 NE3       30.00R FOG
Andover          N/A     61  58  90 CALM      30.00R
Trenton        CLOUDY    64  63  96 E5        29.97R FOG
Millville      CLOUDY    68  68 100 E5        29.96R
Atlantic City  CLOUDY    70  69  97 NE3       29.95S
Wrightstown    CLOUDY    64  63  96 E6        29.95R
Toms River     LGT RAIN  65  65 100 NE7       29.98R FOG
Belmar         LGT RAIN  63  62  97 NE6       29.99R FOG
$$

PAZ047>061-062-071-251000-
EASTERN PENNSYLVANIA

CITY           SKY/WX    TMP DP  RH WIND       PRES   REMARKS
Philadelphia   CLOUDY    67  64  90 NE7       29.97R
Allentown      CLOUDY    66  62  87 CALM      29.98R
Scranton       CLOUDY    66  64  93 CALM      29.98R
$$

CTZ002-004>006-009-010-012-RIZ004-006-007-MAZ004-011-015-251000-
SOUTHERN NEW ENGLAND
 IN CT

CITY           SKY/WX    TMP DP  RH WIND       PRES   REMARKS
Bradley INTL   DRIZZLE   57  55  93 N7        30.03R FOG
Hartford       CLOUDY    58  55  90 N9        30.02R
Danbury        CLOUDY    58  56  93 E5        30.02S
Wtrbury/Oxford CLOUDY    55  52  88 NE5       30.03R
Bridgeport     LGT RAIN  61  56  83 NE8       30.00R
Meriden        CLOUDY    58  55  90 N5        30.02R
New Haven      CLOUDY    60  55  83 NE6       30.01R
Chester        CLOUDY    59  55  88 VRB5      30.01R
Groton         CLOUDY    60  55  83 NW6       30.00R
Wilimantic     CLOUDY    59  55  87 N6        30.02R

 IN RI

CITY           SKY/WX    TMP DP  RH WIND       PRES   REMARKS
Providence     CLOUDY    58  58 100 N7        30.01R
Block Island   CLOUDY    60  57  89 N9        30.00R
Westerly       CLOUDY    60  57  89 N3        30.00R
 IN MA

CITY           SKY/WX    TMP DP  RH WIND       PRES   REMARKS
Boston         CLOUDY    57  56  96 N9        30.01R
Worcester      CLOUDY    52  51  97 N8        30.03R FOG
Westfield      LGT RAIN  56  56 100 N5        30.03R
Provincetown   CLOUDY    57  56  96 N10       29.99R
Nantucket      CLOUDY    61  59  93 N15G24    29.95R
$$

ANZ330-335-338-340-345-350-353-355-251000-
COASTAL MARINE OBSERVATIONS


STATION/POSITION TIME  SKY/WX   TEMP    WIND        PRES    VSBY  WAVE
                                AIR SEA DIR/SP/G                  HT/PER
                 (UTC)          (F)     (DEG/KT/KT) (MB)    (MI)  (FT/S)
NY HARB ENTRANCE 0750            65 71   50/ 12/ 14 1014.4          4/ 6
20 S FIRE ISLAND 0850            67 73   60/ 14/ 16 1014.1          5/ 7
GREAT SOUTH BAY  0830            63 77   50/  8/ 12   N/A
23 SSW MONTAUK P 0750            64 72              1015.2          5/ 7
15 E BARNEGAT LI 0830               71                N/A           5/ 6
HUDSON CANYON    0750            69 74   60/ 12/ 14 1013.1          5/ 7
KINGS POINT      0836            62 71   80/  2/  6 1015.3
EXECUTION ROCKS  0845            63      60/ 10/ 14   N/A
CENTRAL LI SOUND 0830            63      30/ 10/ 12   N/A           1
EASTERN LI SOUND NOT AVBL
ROBBINS REEF     0836                    50/  7/  9 1015.8
$$


>>>>>>>>>>>>>>>>>>>>>>>>>>>> KEY <<<<<<<<<<<<<<<<<<<<<<<<<<<
>                                                          <
>     SKY/WX - Sky Condition/Present Weather               <
>     TMP    - Temperature in Fahrenheit                   <
>     DP     - Dew Point in Fahrenheit                     <
>     RH     - Relative Humidity in Percent                <
>     WIND   - Direction (from) and Speed in MPH           <
>     PRES   - Mean Sea Level Pressure (inches of Hg)      <
>     WCI    - Wind Chill Index                            <
>     VSB    - VISIBILITY IN MILES                         <
>     HX     - HEAT INDEX                                  <
>     TC     - TEMPERATURE IN CELSIUS                      <
>     VRB    - VARIABLE WIND DIRECTION                     <
>                                                          <
>>>>>>>>>>>>>>>>>>>>>>>>>>>> KEY <<<<<<<<<<<<<<<<<<<<<<<<<<<




USA.gov is the U.S. government's official web portal to all federal, state and local government web resources and services.